| time (UTC) | temp F | wind direction | speed MPH | gust MPH | rain 1hr in | rain 24hr in | rain mn in | humidity % | barometer mb |
| 20260505022842 | 68 | 248 | 5.0 | 6.0 | 0.00 | 0.00 | 0.00 | 67 | 1008.8 |
| 20260505022339 | 69 | 255 | 3.0 | 3.0 | 0.00 | 0.00 | 0.00 | 66 | 1008.7 |
| 20260505021836 | 69 | 308 | 2.0 | 3.0 | 0.00 | 0.00 | 0.00 | 64 | 1009.0 |
| 20260505021333 | 70 | 217 | 5.0 | 7.0 | 0.00 | 0.00 | 0.00 | 65 | 1008.8 |
| 20260505020829 | 70 | 211 | 4.0 | 5.0 | 0.00 | 0.00 | 0.00 | 64 | 1008.8 |
| 20260505020324 | 70 | 256 | 4.0 | 6.0 | 0.00 | 0.00 | 0.00 | 63 | 1008.8 |
| 20260505015821 | 72 | 219 | 3.0 | 3.0 | 0.00 | 0.00 | 0.00 | 63 | 1008.7 |
| 20260505015319 | 71 | 325 | 3.0 | 3.0 | 0.00 | 0.00 | 0.00 | 62 | 1008.7 |
| 20260505014816 | 72 | 321 | 4.0 | 5.0 | 0.00 | 0.00 | 0.00 | 62 | 1008.6 |
| 20260505014313 | 72 | 241 | 5.0 | 6.0 | 0.00 | 0.00 | 0.00 | 61 | 1008.8 |
| 20260505013809 | 72 | 268 | 4.0 | 5.0 | 0.00 | 0.00 | 0.00 | 62 | 1008.6 |
| 20260505013307 | 72 | 229 | 5.0 | 6.0 | 0.00 | 0.00 | 0.00 | 60 | 1009.0 |
| 20260505012805 | 73 | 223 | 4.0 | 5.0 | 0.00 | 0.00 | 0.00 | 59 | 1008.6 |
| 20260505012304 | 73 | 279 | 5.0 | 6.0 | 0.00 | 0.00 | 0.00 | 59 | 1008.7 |
| 20260505011758 | 73 | 244 | 7.0 | 8.0 | 0.00 | 0.00 | 0.00 | 60 | 1009.1 |
| 20260505011255 | 73 | 256 | 6.0 | 8.0 | 0.00 | 0.00 | 0.00 | 58 | 1009.1 |
| 20260505010750 | 73 | 305 | 6.0 | 8.0 | 0.00 | 0.00 | 0.00 | 57 | 1008.7 |
| 20260505010247 | 73 | 239 | 9.0 | 10.0 | 0.00 | 0.00 | 0.00 | 57 | 1008.8 |
| 20260505005743 | 73 | 255 | 9.0 | 11.0 | 0.00 | 0.00 | 0.00 | 57 | 1009.0 |
| 20260505005240 | 74 | 227 | 9.0 | 13.0 | 0.00 | 0.00 | 0.00 | 56 | 1009.0 |
| 20260505004738 | 74 | 210 | 5.0 | 7.0 | 0.00 | 0.00 | 0.00 | 56 | 1008.6 |
| 20260505004234 | 75 | 224 | 10.0 | 10.0 | 0.00 | 0.00 | 0.00 | 55 | 1009.0 |
| 20260505003731 | 75 | 204 | 5.0 | 6.0 | 0.00 | 0.00 | 0.00 | 55 | 1008.7 |
| 20260505003229 | 75 | 219 | 9.0 | 11.0 | 0.00 | 0.00 | 0.00 | 54 | 1008.6 |
| 20260505002725 | 75 | 234 | 8.0 | 11.0 | 0.00 | 0.00 | 0.00 | 54 | 1008.8 |
| 20260505002222 | 74 | 245 | 8.0 | 9.0 | 0.00 | 0.00 | 0.00 | 54 | 1008.7 |
| 20260505001720 | 75 | 210 | 7.0 | 8.0 | 0.00 | 0.00 | 0.00 | 54 | 1008.8 |
| 20260505001217 | 75 | 51 | 2.0 | 3.0 | 0.00 | 0.00 | 0.00 | 54 | 1008.8 |
| 20260505000714 | 76 | 277 | 5.0 | 7.0 | 0.00 | 0.00 | 0.00 | 52 | 1009.0 |
| 20260505000212 | 75 | 216 | 3.0 | 3.0 | 0.00 | 0.00 | 0.00 | 53 | 1009.0 |
| 20260504235708 | 75 | 214 | 5.0 | 6.0 | 0.00 | 0.00 | 0.00 | 54 | 1008.7 |
| 20260504235204 | 76 | 239 | 4.0 | 6.0 | 0.00 | 0.00 | 0.00 | 53 | 1009.1 |
| 20260504234702 | 76 | 243 | 9.0 | 10.0 | 0.00 | 0.00 | 0.00 | 52 | 1008.8 |
| 20260504234159 | 77 | 242 | 9.0 | 10.0 | 0.00 | 0.00 | 0.00 | 51 | 1008.6 |
| 20260504233655 | 78 | 216 | 6.0 | 8.0 | 0.00 | 0.00 | 0.00 | 52 | 1008.7 |
| 20260504233151 | 77 | 250 | 5.0 | 6.0 | 0.00 | 0.00 | 0.00 | 53 | 1008.6 |
| 20260504232649 | 78 | 216 | 7.0 | 8.0 | 0.00 | 0.00 | 0.00 | 53 | 1009.0 |
| 20260504232145 | 78 | 241 | 3.0 | 3.0 | 0.00 | 0.00 | 0.00 | 54 | 1008.8 |
| 20260504231642 | 77 | 198 | 5.0 | 7.0 | 0.00 | 0.00 | 0.00 | 50 | 1008.8 |
| 20260504231138 | 76 | 236 | 8.0 | 10.0 | 0.00 | 0.00 | 0.00 | 50 | 1008.7 |
| 20260504230635 | 77 | 223 | 3.0 | 3.0 | 0.00 | 0.00 | 0.00 | 54 | 1008.8 |
| 20260504230134 | 76 | 24 | 3.0 | 3.0 | 0.00 | 0.00 | 0.00 | 54 | 1009.1 |
| 20260504225632 | 75 | 247 | 7.0 | 8.0 | 0.00 | 0.00 | 0.00 | 55 | 1009.1 |
| 20260504225127 | 76 | 252 | 5.0 | 6.0 | 0.00 | 0.00 | 0.00 | 53 | 1009.2 |
| 20260504224624 | 76 | 209 | 3.0 | 3.0 | 0.00 | 0.00 | 0.00 | 56 | 1009.3 |
| 20260504224121 | 76 | 229 | 8.0 | 9.0 | 0.00 | 0.00 | 0.00 | 56 | 1009.3 |
| 20260504223618 | 78 | 255 | 4.0 | 5.0 | 0.00 | 0.00 | 0.00 | 52 | 1009.5 |
| 20260504223114 | 77 | 221 | 3.0 | 3.0 | 0.00 | 0.00 | 0.00 | 53 | 1009.4 |
| 20260504222611 | 76 | 231 | 4.0 | 5.0 | 0.00 | 0.00 | 0.00 | 56 | 1009.3 |
| 20260504222108 | 75 | 359 | 1.0 | 1.0 | 0.00 | 0.00 | 0.00 | 56 | 1009.5 |
| 20260504221605 | 75 | 252 | 10.0 | 13.0 | 0.00 | 0.00 | 0.00 | 56 | 1009.8 |
| 20260504221102 | 75 | 266 | 6.0 | 7.0 | 0.00 | 0.00 | 0.00 | 56 | 1009.4 |
| 20260504220558 | 75 | 204 | 5.0 | 7.0 | 0.00 | 0.00 | 0.00 | 56 | 1009.6 |
| 20260504220056 | 75 | 224 | 4.0 | 6.0 | 0.00 | 0.00 | 0.00 | 56 | 1009.7 |
| 20260504215552 | 75 | 252 | 7.0 | 7.0 | 0.00 | 0.00 | 0.00 | 59 | 1009.6 |
| 20260504215050 | 73 | 231 | 6.0 | 7.0 | 0.00 | 0.00 | 0.00 | 57 | 1009.7 |
| 20260504214545 | 74 | 242 | 8.0 | 8.0 | 0.00 | 0.00 | 0.00 | 58 | 1010.1 |
| 20260504214042 | 74 | 234 | 6.0 | 7.0 | 0.00 | 0.00 | 0.00 | 57 | 1009.7 |
| 20260504213538 | 75 | 241 | 6.0 | 7.0 | 0.00 | 0.00 | 0.00 | 57 | 1009.9 |
| 20260504213036 | 75 | 243 | 9.0 | 10.0 | 0.00 | 0.00 | 0.00 | 58 | 1009.8 |
| 20260504212531 | 74 | 297 | 2.0 | 3.0 | 0.00 | 0.00 | 0.00 | 57 | 1010.1 |
| 20260504212029 | 73 | 257 | 3.0 | 3.0 | 0.00 | 0.00 | 0.00 | 57 | 1009.9 |
| 20260504211526 | 73 | 293 | 4.0 | 6.0 | 0.00 | 0.00 | 0.00 | 58 | 1010.0 |
| 20260504211023 | 75 | 285 | 5.0 | 7.0 | 0.00 | 0.00 | 0.00 | 54 | 1010.0 |
| 20260504210520 | 75 | 286 | 5.0 | 9.0 | 0.00 | 0.00 | 0.00 | 55 | 1010.0 |
| 20260504210016 | 73 | 244 | 5.0 | 8.0 | 0.00 | 0.00 | 0.00 | 58 | 1010.1 |
| 20260504205515 | 75 | 239 | 4.0 | 5.0 | 0.00 | 0.00 | 0.00 | 56 | 1010.1 |
| 20260504205012 | 74 | 192 | 3.0 | 5.0 | 0.00 | 0.00 | 0.00 | 54 | 1010.1 |
| 20260504204510 | 74 | 256 | 2.0 | 2.0 | 0.00 | 0.00 | 0.00 | 56 | 1010.2 |
| 20260504204009 | 73 | 336 | 3.0 | 5.0 | 0.00 | 0.00 | 0.00 | 54 | 1010.2 |
| 20260504203506 | 73 | 179 | 4.0 | 6.0 | 0.00 | 0.00 | 0.00 | 57 | 1010.3 |
| 20260504203003 | 73 | 264 | 5.0 | 6.0 | 0.00 | 0.00 | 0.00 | 56 | 1010.0 |
| 20260504202459 | 74 | 291 | 6.0 | 8.0 | 0.00 | 0.00 | 0.00 | 61 | 1010.3 |
| 20260504201956 | 73 | 225 | 3.0 | 5.0 | 0.00 | 0.00 | 0.00 | 59 | 1010.0 |
| 20260504201453 | 72 | 200 | 2.0 | 3.0 | 0.00 | 0.00 | 0.00 | 61 | 1009.8 |
| 20260504200950 | 73 | 231 | 4.0 | 6.0 | 0.00 | 0.00 | 0.00 | 63 | 1009.9 |
| 20260504200447 | 72 | 189 | 5.0 | 6.0 | 0.00 | 0.00 | 0.00 | 64 | 1009.9 |
| 20260504195944 | 71 | 243 | 5.0 | 6.0 | 0.00 | 0.00 | 0.00 | 66 | 1010.2 |
| 20260504195439 | 71 | 218 | 8.0 | 9.0 | 0.00 | 0.00 | 0.00 | 66 | 1010.2 |
| 20260504194936 | 71 | 192 | 5.0 | 7.0 | 0.00 | 0.00 | 0.00 | 66 | 1010.3 |
| 20260504194432 | 71 | 247 | 9.0 | 10.0 | 0.00 | 0.00 | 0.00 | 66 | 1010.1 |
| 20260504193928 | 71 | 264 | 4.0 | 5.0 | 0.00 | 0.00 | 0.00 | 66 | 1010.4 |
| 20260504193426 | 70 | 215 | 3.0 | 3.0 | 0.00 | 0.00 | 0.00 | 67 | 1010.1 |
| 20260504192925 | 70 | 239 | 3.0 | 3.0 | 0.00 | 0.00 | 0.00 | 66 | 1010.3 |
| 20260504192421 | 70 | 226 | 5.0 | 6.0 | 0.00 | 0.00 | 0.00 | 65 | 1010.2 |
| 20260504191920 | 72 | 232 | 9.0 | 10.0 | 0.00 | 0.00 | 0.00 | 65 | 1010.2 |
| 20260504191418 | 71 | 215 | 5.0 | 6.0 | 0.00 | 0.00 | 0.00 | 66 | 1010.3 |
| 20260504190913 | 70 | 222 | 3.0 | 6.0 | 0.00 | 0.00 | 0.00 | 67 | 1010.0 |
| 20260504190409 | 70 | 273 | 5.0 | 6.0 | 0.00 | 0.00 | 0.00 | 64 | 1010.1 |
| 20260504185906 | 70 | 216 | 5.0 | 6.0 | 0.00 | 0.00 | 0.00 | 62 | 1010.2 |
| 20260504185403 | 70 | 6 | 1.0 | 2.0 | 0.00 | 0.00 | 0.00 | 66 | 1010.3 |
| 20260504184859 | 71 | 49 | 3.0 | 3.0 | 0.00 | 0.00 | 0.00 | 63 | 1010.3 |
| 20260504184355 | 71 | 53 | 2.0 | 3.0 | 0.00 | 0.00 | 0.00 | 62 | 1010.3 |
| 20260504183851 | 69 | 197 | 4.0 | 5.0 | 0.00 | 0.00 | 0.00 | 66 | 1010.4 |
| 20260504183349 | 71 | 33 | 2.0 | 2.0 | 0.00 | 0.00 | 0.00 | 60 | 1010.3 |
| 20260504182846 | 70 | 242 | 3.0 | 5.0 | 0.00 | 0.00 | 0.00 | 64 | 1010.4 |
| 20260504182343 | 70 | 168 | 4.0 | 5.0 | 0.00 | 0.00 | 0.00 | 62 | 1010.4 |
| 20260504181840 | 69 | 300 | 2.0 | 2.0 | 0.00 | 0.00 | 0.00 | 63 | 1010.4 |
| 20260504181337 | 69 | 225 | 3.0 | 6.0 | 0.00 | 0.00 | 0.00 | 64 | 1010.5 |
| 20260504180836 | 70 | 18 | 1.0 | 2.0 | 0.00 | 0.00 | 0.00 | 62 | 1010.5 |
| 20260504180334 | 69 | 19 | 0.0 | 1.0 | 0.00 | 0.00 | 0.00 | 64 | 1010.4 |
| 20260504175832 | 68 | 243 | 3.0 | 3.0 | 0.00 | 0.00 | 0.00 | 65 | 1010.6 |
| 20260504175328 | 68 | 179 | 3.0 | 5.0 | 0.00 | 0.00 | 0.00 | 63 | 1010.4 |
| 20260504174827 | 68 | 27 | 2.0 | 2.0 | 0.00 | 0.00 | 0.00 | 66 | 1010.8 |
| 20260504174324 | 68 | 197 | 4.0 | 6.0 | 0.00 | 0.00 | 0.00 | 64 | 1010.3 |
| 20260504173821 | 67 | 179 | 3.0 | 3.0 | 0.00 | 0.00 | 0.00 | 66 | 1010.4 |
| 20260504173317 | 67 | 243 | 8.0 | 9.0 | 0.00 | 0.00 | 0.00 | 67 | 1010.4 |
| 20260504172814 | 67 | 224 | 5.0 | 7.0 | 0.00 | 0.00 | 0.00 | 65 | 1010.3 |
| 20260504172311 | 67 | 225 | 4.0 | 5.0 | 0.00 | 0.00 | 0.00 | 67 | 1010.3 |
| 20260504171807 | 67 | 258 | 5.0 | 6.0 | 0.00 | 0.00 | 0.00 | 67 | 1010.3 |
| 20260504171304 | 66 | 252 | 5.0 | 6.0 | 0.00 | 0.00 | 0.00 | 67 | 1010.3 |
| 20260504170801 | 67 | 242 | 4.0 | 5.0 | 0.00 | 0.00 | 0.00 | 68 | 1010.5 |
| 20260504170258 | 66 | 210 | 2.0 | 3.0 | 0.00 | 0.00 | 0.00 | 67 | 1010.2 |
| 20260504160216 | 64 | 237 | 7.0 | 9.0 | 0.00 | 0.00 | 0.00 | 68 | 1009.9 |
| 20260504151144 | 62 | 248 | 4.0 | 5.0 | 0.00 | 0.00 | 0.00 | 68 | 1009.5 |
| 20260504150642 | 62 | 216 | 4.0 | 5.0 | 0.00 | 0.00 | 0.00 | 69 | 1009.4 |
| 20260504150138 | 61 | 299 | 2.0 | 2.0 | 0.00 | 0.00 | 0.00 | 70 | 1009.7 |
| 20260504141107 | 58 | 347 | 1.0 | 2.0 | 0.00 | 0.00 | 0.00 | 73 | 1009.2 |
| 20260504140604 | 58 | 43 | 0.0 | 0.0 | 0.00 | 0.00 | 0.00 | 74 | 1009.3 |
| 20260504130528 | 55 | 32 | 0.0 | 0.0 | 0.00 | 0.00 | 0.00 | 81 | 1009.0 |
| 20260504110415 | 56 | 44 | 0.0 | 1.0 | 0.00 | 0.00 | 0.00 | 70 | 1008.8 |
| 20260504100332 | 57 | 50 | 1.0 | 1.0 | 0.00 | 0.00 | 0.00 | 67 | 1008.6 |
| 20260504081726 | 57 | 47 | 0.0 | 0.0 | 0.00 | 0.00 | 0.00 | 70 | 1008.6 |
| 20260504081222 | 57 | 37 | 0.0 | 0.0 | 0.00 | 0.00 | 0.00 | 69 | 1008.6 |
| 20260504080719 | 57 | 42 | 0.0 | 0.0 | 0.00 | 0.00 | 0.00 | 70 | 1009.1 |
| 20260504080215 | 57 | 49 | 0.0 | 1.0 | 0.00 | 0.00 | 0.00 | 71 | 1008.6 |
| 20260504070143 | 60 | 55 | 1.0 | 1.0 | 0.00 | 0.00 | 0.00 | 61 | 1008.8 |
| 20260504060103 | 65 | 41 | 1.0 | 1.0 | 0.00 | 0.00 | 0.00 | 52 | 1008.8 |
| 20260504050531 | 68 | 38 | 0.0 | 0.0 | 0.00 | 0.00 | 0.00 | 44 | 1008.3 |
| 20260504045525 | 68 | 28 | 0.0 | 0.0 | 0.00 | 0.00 | 0.00 | 45 | 1008.4 |
| 20260504045021 | 68 | 37 | 0.0 | 0.0 | 0.00 | 0.00 | 0.00 | 46 | 1008.6 |
| 20260504044518 | 69 | 36 | 0.0 | 0.0 | 0.00 | 0.00 | 0.00 | 44 | 1008.2 |
| 20260504044015 | 69 | 25 | 1.0 | 1.0 | 0.00 | 0.00 | 0.00 | 44 | 1008.4 |
| 20260504043512 | 70 | 37 | 0.0 | 0.0 | 0.00 | 0.00 | 0.00 | 44 | 1008.5 |
| 20260504043010 | 70 | 61 | 1.0 | 1.0 | 0.00 | 0.00 | 0.00 | 43 | 1008.3 |
| 20260504042506 | 70 | 31 | 0.0 | 1.0 | 0.00 | 0.00 | 0.00 | 42 | 1008.5 |
| 20260504042003 | 70 | 48 | 1.0 | 1.0 | 0.00 | 0.00 | 0.00 | 43 | 1008.4 |
| 20260504041459 | 70 | 31 | 0.0 | 0.0 | 0.00 | 0.00 | 0.00 | 44 | 1008.6 |
| 20260504040955 | 70 | 45 | 1.0 | 1.0 | 0.00 | 0.00 | 0.00 | 43 | 1008.4 |
| 20260504040453 | 70 | 41 | 1.0 | 1.0 | 0.00 | 0.00 | 0.00 | 43 | 1008.5 |
| 20260504035949 | 71 | 36 | 0.0 | 0.0 | 0.00 | 0.00 | 0.00 | 42 | 1008.4 |
| 20260504035447 | 71 | 39 | 1.0 | 1.0 | 0.00 | 0.00 | 0.00 | 42 | 1008.4 |
| 20260504034943 | 71 | 43 | 1.0 | 1.0 | 0.00 | 0.00 | 0.00 | 42 | 1008.3 |
| 20260504034440 | 71 | 43 | 0.0 | 0.0 | 0.00 | 0.00 | 0.00 | 42 | 1008.5 |
| 20260504033937 | 71 | 39 | 0.0 | 1.0 | 0.00 | 0.00 | 0.00 | 41 | 1008.6 |
| 20260504033435 | 71 | 70 | 0.0 | 1.0 | 0.00 | 0.00 | 0.00 | 42 | 1008.3 |
| 20260504032932 | 72 | 31 | 0.0 | 0.0 | 0.00 | 0.00 | 0.00 | 41 | 1008.4 |
| 20260504032429 | 72 | 56 | 0.0 | 0.0 | 0.00 | 0.00 | 0.00 | 41 | 1008.4 |
| 20260504031925 | 73 | 32 | 0.0 | 0.0 | 0.00 | 0.00 | 0.00 | 40 | 1008.4 |
| 20260504031422 | 73 | 66 | 0.0 | 1.0 | 0.00 | 0.00 | 0.00 | 40 | 1008.4 |
| 20260504030919 | 73 | 34 | 0.0 | 0.0 | 0.00 | 0.00 | 0.00 | 40 | 1008.2 |
| 20260504030416 | 74 | 45 | 1.0 | 1.0 | 0.00 | 0.00 | 0.00 | 40 | 1008.5 |
| 20260504025912 | 74 | 33 | 0.0 | 0.0 | 0.00 | 0.00 | 0.00 | 39 | 1008.5 |
| 20260504025409 | 75 | 30 | 1.0 | 1.0 | 0.00 | 0.00 | 0.00 | 38 | 1008.5 |
| 20260504024906 | 75 | 61 | 1.0 | 1.0 | 0.00 | 0.00 | 0.00 | 38 | 1008.5 |
| 20260504024403 | 76 | 21 | 0.0 | 1.0 | 0.00 | 0.00 | 0.00 | 38 | 1008.6 |
| 20260504023900 | 77 | 30 | 1.0 | 3.0 | 0.00 | 0.00 | 0.00 | 37 | 1008.5 |
| 20260504023356 | 77 | 52 | 1.0 | 2.0 | 0.00 | 0.00 | 0.00 | 37 | 1008.5 |